[[{"header":{"parameterUnit":"m.s-1","parameterCategory":1,"la1":30.2992,"la2":30.254,"lo1":-89.0895,"lo2":-89.0443,"dy":0.0025,"dx":0.0025,"nx":19,"ny":19,"refTime":"2026-05-24T09:00:00:Z","depth":0,"parameterNumber":2,"parameterNumberName":"U-component_of_WINDS"},"data":[0,0,0,-3.2184,-3.2188,-3.237,-3.2371,-3.2597,-3.2599,0,0,0,0,0,0,0,0,0,0,0,-3.2126,-3.2128,-3.2184,-3.2189,-3.237,-3.2371,-3.2597,-3.2599,0,0,0,0,0,0,0,0,0,0,0,-3.2126,-3.2127,-3.2129,-3.2189,-3.237,-3.2371,-3.2596,-3.2462,0,0,0,0,0,0,0,0,0,0,-3.2286,-3.2229,-3.2127,-3.2129,-3.219,-3.2369,-3.2371,-3.2455,-3.247,-3.2512,0,-3.2548,0,-3.2577,-3.2614,-3.2614,0,0,0,-3.2192,-3.2216,-3.2269,-3.2129,-3.2192,-3.2369,-3.2289,-3.2464,-3.248,-3.2532,-3.2551,-3.256,-3.2581,-3.2615,-3.2616,-3.2845,-3.2846,0,0,-3.2182,-3.2157,-3.2257,-3.2279,-3.225,-3.2283,-3.2295,-3.2474,-3.2494,-3.2552,-3.2565,-3.2584,-3.2617,-3.2618,-3.2844,-3.2845,0,0,0,-3.2151,-3.215,-3.2198,-3.227,-3.2303,-3.2288,-3.2301,-3.2486,-3.2503,-3.2568,-3.2587,-3.2618,-3.2621,-3.2843,-3.2844,-3.2863,0,0,0,-3.2145,-3.2132,-3.2194,-3.218,-3.2299,-3.2396,-3.2309,-3.2491,-3.2512,-3.2586,-3.2618,-3.2623,-3.2842,-3.2844,-3.286,-3.2876,0,0,0,-3.2116,-3.2129,-3.2153,-3.2179,-3.2256,-3.2394,-3.2422,-3.2496,-3.2524,-3.2615,-3.2623,-3.2841,-3.2843,-3.2858,-3.2872,-3.2927,0,0,0,-3.2078,-3.2169,-3.2153,-3.2262,-3.2254,-3.2404,-3.2421,-3.2535,-3.2615,-3.2619,-3.2842,-3.2844,-3.2857,-3.287,-3.2925,-3.2968,-3.2984,0,0,-3.2179,-3.218,-3.2246,-3.2237,-3.2383,-3.2379,-3.2529,-3.2627,-3.2659,-3.2781,-3.2787,-3.2861,-3.2872,-3.2927,-3.3085,-3.3098,0,0,0,-3.2269,-3.2316,-3.236,-3.2435,-3.2511,-3.2577,-3.2655,-3.2691,-3.2796,-3.2716,-3.2898,-3.2905,-3.2938,-3.296,-3.2971,-3.3,-3.2854,-3.2853,-3.2853,-3.2375,-3.241,-3.2521,-3.2578,-3.265,-3.2728,-3.279,-3.2852,-3.2868,-3.2911,-3.2946,-3.3038,-3.3063,-3.3071,-3.3101,-3.2974,-3.2974,-3.2974,-3.2974,-3.2524,-3.2595,-3.2613,-3.2726,-3.2763,-3.2859,-3.2938,-3.2946,-3.3041,-3.3014,-3.3046,-3.3012,-3.3084,-3.3112,-3.2976,-3.2975,-3.2975,-3.2975,-3.2975,-3.2596,-3.2636,-3.2678,-3.2788,-3.2869,-3.2924,-3.3014,-3.3045,-3.3076,-3.3106,-3.3147,-3.3147,-3.3149,-3.3124,-3.3124,-3.3124,-3.3125,-3.3125,-3.3125,-3.2654,-3.27,-3.2771,-3.2858,-3.2909,-3.2981,-3.306,-3.3112,-3.3177,-3.3193,-3.3193,-3.3204,-3.3085,-3.3053,-3.313,-3.3129,-3.3129,-3.3128,-3.3128,-3.2789,-3.2763,-3.2873,-3.2924,-3.3028,-3.3106,-3.3145,-3.3247,-3.3294,-3.3337,-3.3342,-3.3249,-3.3253,-3.3245,-3.3219,-3.3334,-3.3334,-3.3334,-3.3334,-3.2849,-3.2853,-3.2972,-3.3051,-3.3132,-3.3178,-3.33,-3.3363,-3.3424,-3.3455,-3.3443,-3.3412,-3.3402,-3.3412,-3.34,-3.3376,-3.353,-3.353,-3.353,-3.2933,-3.2947,-3.3045,-3.3102,-3.3186,-3.3257,-3.3373,-3.3464,-3.3528,-3.3539,-3.348,-3.3472,-3.3422,-3.3404,-3.3411,-3.3392,-3.3349,0,0]},{"header":{"parameterUnit":"m.s-1","parameterCategory":1,"la1":30.2992,"la2":30.254,"lo1":-89.0895,"lo2":-89.0443,"dy":0.0025,"dx":0.0025,"nx":19,"ny":19,"refTime":"2026-05-24T09:00:00:Z","depth":0,"parameterNumber":3,"parameterNumberName":"V-component_of_WINDS"},"data":[0,0,0,5.6921,5.6927,5.7168,5.7169,5.7475,5.7477,0,0,0,0,0,0,0,0,0,0,0,5.6851,5.6853,5.6921,5.6927,5.7168,5.7169,5.7474,5.7477,0,0,0,0,0,0,0,0,0,0,0,5.685,5.6853,5.6855,5.6928,5.7168,5.7169,5.7474,5.7292,0,0,0,0,0,0,0,0,0,0,5.7058,5.6995,5.6852,5.6856,5.693,5.7168,5.717,5.7283,5.7303,5.7365,0,5.7423,0,5.7455,5.7498,5.7499,0,0,0,5.6925,5.6978,5.7042,5.6856,5.6932,5.7168,5.7059,5.7294,5.7317,5.7391,5.7427,5.7439,5.746,5.75,5.7501,5.7869,5.7871,0,0,5.6912,5.6895,5.7027,5.7057,5.7023,5.7051,5.7067,5.7308,5.7345,5.7428,5.7446,5.7465,5.7502,5.7504,5.7868,5.787,0,0,0,5.6875,5.6885,5.6944,5.7045,5.7088,5.7058,5.7076,5.7334,5.7355,5.7449,5.7469,5.7504,5.7508,5.7866,5.7868,5.794,0,0,0,5.6867,5.6864,5.6938,5.693,5.7084,5.7215,5.7096,5.7338,5.7366,5.7467,5.7504,5.751,5.7864,5.7867,5.7934,5.7977,0,0,0,5.6835,5.686,5.6896,5.6928,5.7032,5.7212,5.7246,5.7344,5.7378,5.7499,5.7511,5.7862,5.7866,5.7929,5.7968,5.8068,0,0,0,5.6795,5.6956,5.6896,5.7083,5.703,5.7255,5.7245,5.7413,5.7526,5.7505,5.7864,5.7868,5.7927,5.7962,5.8062,5.8148,5.8183,0,0,5.6988,5.6978,5.709,5.7044,5.7276,5.722,5.7462,5.758,5.7607,5.7779,5.7788,5.7936,5.7967,5.8066,5.8386,5.8413,0,0,0,5.7145,5.7224,5.729,5.7397,5.7493,5.7578,5.7662,5.7705,5.7853,5.7693,5.8,5.8019,5.8078,5.812,5.8144,5.8194,5.7887,5.7887,5.7886,5.7392,5.7419,5.7604,5.7659,5.7763,5.7848,5.7933,5.8006,5.8001,5.8073,5.8124,5.8315,5.8364,5.8382,5.8434,5.8173,5.8173,5.8174,5.8174,5.7676,5.7792,5.7783,5.7959,5.7985,5.8132,5.8218,5.821,5.8349,5.8279,5.8332,5.8253,5.8411,5.8458,5.818,5.8179,5.8178,5.8177,5.8177,5.784,5.79,5.7952,5.8109,5.8226,5.8276,5.841,5.8428,5.8446,5.8499,5.8554,5.8552,5.8552,5.8524,5.8525,5.8525,5.8526,5.8526,5.8527,5.7989,5.8045,5.8157,5.8272,5.8342,5.8437,5.8523,5.8592,5.8673,5.8675,5.8676,5.8662,5.8423,5.8361,5.8537,5.8535,5.8534,5.8533,5.8532,5.8266,5.8206,5.8379,5.845,5.8585,5.8699,5.8721,5.886,5.8919,5.8984,5.896,5.878,5.8771,5.8752,5.8701,5.8955,5.8955,5.8955,5.8955,5.8403,5.8401,5.8581,5.8693,5.8804,5.8841,5.9033,5.91,5.9159,5.9197,5.9163,5.9097,5.9078,5.908,5.9055,5.9007,5.9333,5.9333,5.9334,5.8574,5.8583,5.8744,5.8803,5.891,5.8999,5.9179,5.9305,5.936,5.9349,5.9226,5.9211,5.9105,5.907,5.9055,5.9015,5.8928,0,0]}]]